Home   Weather   Zhengzhou   Past weeks

Flag for China Past Weather in Zhengzhou, Henan, China — Yesterday and Last 2 Weeks

Now
28 °F

Clear.


Feels Like: 28 °F
Forecast: 19 / 46 °F
Wind: No wind

Location: Zhengzhou Airport

Current Time: Jan 22, 2017 at 4:04:01 am

Latest Report: Jan 22, 2017 at 3:00 am


Visibility: 4 mi

Pressure: 30.54 "Hg

Humidity: 51%

Dew Point: 12 °F

Location of ZhengzhouLocation

Past Weather in Zhengzhou — Graph

°F

Zhengzhou Temperature Yesterday

Maximum temperature yesterday: 50 °F (at 1:00 pm)
Minimum temperature yesterday: 23 °F (at 7:00 am)
Average temperature yesterday: 38 °F

High & Low Weather Summary for the Past Weeks

 TemperatureHumidityPressure
High54 °F (Jan 12, 3:00 pm)100% (Jan 7, 2:00 am)30.66 "Hg (Jan 7, 2:00 am)
Low18 °F (Jan 20, 7:00 am)11% (Jan 21, 2:00 pm)30.09 "Hg (Jan 12, 5:00 pm)
Average37 °F61%30.35 "Hg
* Reported Jan 7 2:00 am — Jan 22 2:00 am, Zhengzhou, Weather by CustomWeather, © 2017

Note: Actual official high and low records may vary slightly from our data, if they occured in-between our weather recording intervals... More about our weather records

Advertising

Zhengzhou Weather History for the Previous 24 Hours

Scroll right to see more
 ConditionsComfort  
Time TempWeatherWind HumidityBarometerVisibility
2:00 am
Sun, Jan 22
30 °FClear.6 mph47%30.54 "Hg4 mi
1:00 am30 °FClear.1 mph43%30.51 "Hg4 mi
12:00 am30 °FClear.3 mph43%30.51 "Hg4 mi
11:00 pm
Sat, Jan 21
34 °FClear.6 mph35%30.51 "Hg4 mi
10:00 pm34 °FClear.6 mph35%30.51 "Hg5 mi
9:00 pm36 °FClear.1 mph32%30.48 "Hg5 mi
8:00 pm36 °FClear.3 mph30%30.45 "Hg5 mi
7:00 pm36 °FClear.1 mph30%30.42 "Hg5 mi
6:00 pm41 °FClear.1 mph20%30.39 "Hg10 mi
5:00 pm48 °FSunny.8 mph13%30.36 "Hg10 mi
4:00 pm50 °FSunny.13 mph11%30.33 "Hg10 mi
3:00 pm50 °FPassing clouds.15 mph11%30.33 "HgN/A
2:00 pm50 °FSunny.13 mph11%30.36 "Hg10 mi
1:00 pm50 °FSunny.17 mph12%30.36 "Hg10 mi
12:00 pm48 °FSunny.22 mph13%30.39 "Hg10 mi
11:00 am46 °FSunny.24 mph13%30.39 "Hg10 mi
10:00 am45 °FSunny.20 mph16%30.39 "Hg10 mi
9:00 am37 °FClear.8 mph28%30.39 "Hg5 mi
8:00 am32 °FClear.3 mph40%30.36 "Hg5 mi
7:00 am23 °FClear.1 mph63%30.36 "Hg5 mi
6:00 am25 °FClear.No wind59%30.33 "Hg10 mi
5:00 am30 °FPassing clouds.3 mph43%30.33 "HgN/A
4:00 am30 °FPassing clouds.6 mph43%30.36 "HgN/A
Weather by CustomWeather, © 2017

See weather overviewHow to use our weather pages